Regional Weather Roundup
Issued by NWS Charleston, SC

Home | Current Version | Previous Version | Text Only | Print | Product List | Glossary On
Versions: 1 2 3 4 5 6 7 8 9 10 11 12 13 14 15 16 17 18 19 20 21 22 23 24 25 26 27 28 29 30 31 32 33 34 35 36 37 38 39 40 41 42 43 44 45 46 47 48 49 50
000
ASUS42 KCHS 082212
RWRCHS

REGIONAL WEATHER ROUNDUP
NATIONAL WEATHER SERVICE CHARLESTON SC
500 PM EST THU DEC 08 2016

NOTE: "FAIR" INDICATES FEW OR NO CLOUDS BELOW 12,000 FEET WITH NO
SIGNIFICANT WEATHER AND/OR OBSTRUCTIONS TO VISIBILITY.

NOT ALL STATIONS ARE QUALITY CONTROLLED. USE DATA WITH CAUTION...
ESPECIALLY DEWPOINT OBSERVATIONS.

SCZ027-030-031-034>040-042>050-082300-
...SOUTHEAST SOUTH CAROLINA...

CITY           SKY/WX    TMP DP  RH WIND       PRES   REMARKS
N CHARLESTON   MOCLDY    61  46  57 N13       30.12R
WATERFRONT PRK   N/A     63  48  58 NW6       30.09R
MOUNT PLEASANT NOT AVBL
JOHNS ISLAND   FAIR      61  48  63 W7        30.12R
PINOPOLIS        N/A     59  52  77 NW15      30.03R
MONCKS CORNER  FAIR      57  46  67 NW6       30.13R
SUMMERVILLE    FAIR      57  46  67 NW10      30.15R
BEAUFORT MCAS  PTCLDY    60  45  57 W9        30.15R
BEAUFORT ARPT  FAIR      59  45  58 NW7       30.14R
HILTON HEAD IS PTCLDY    61  45  55 W12       30.15R
WALTERBORO     PTCLDY    59  46  63 NW8       30.16R
ALLENDALE      FAIR      57  45  62 CALM      30.15R

...SOUTHERN MIDLANDS AND PEE DEE...

CITY           SKY/WX    TMP DP  RH WIND       PRES   REMARKS
GEORGETOWN     MOCLDY    57  46  67 NW9       30.12R
KINGSTREE      FAIR      54  45  71 NW7       30.14R
ORANGEBURG     CLEAR     57  40  52 N6        30.16R
BARNWELL       NOT AVBL
AIKEN          FAIR      52  34  50 NW9G16    30.21R
MANNING        FAIR      55  43  62 NW8       30.15R
COLUMBIA       MOCLDY    54  26  34 NW12      30.18R
SUMTER         CLEAR     55  40  56 NW10      30.13R
FLORENCE       CLOUDY    54  42  64 N9        30.14R
MYRTLE BEACH   PTCLDY    57  46  67 N12       30.13R
N MYRTLE BEACH PTCLDY    56  49  77 NW6       30.11R

$$

GAZ063-065-086>088-099>101-113>116-118-119-134>141-150-082300-
...SOUTHEAST GEORGIA...

CITY           SKY/WX    TMP DP  RH WIND       PRES   REMARKS
SAVANNAH ARPT  CLOUDY    61  40  45 NW12      30.16R
HUNTER AAF     MOCLDY    61  46  58 NW9       30.13R
FORT STEWART   PTCLDY    61  40  44 NW5       30.15R
STATESBORO     PTCLDY    59  42  53 NW7       30.17R
SYLVANIA       CLEAR    N/A N/A N/A N6        30.17R
CLAXTON        FAIR      60  41  50 W8        30.18R

...CSRA...CENTRAL AND FAR SOUTHEAST GEORGIA...

CITY           SKY/WX    TMP DP  RH WIND       PRES   REMARKS
THOMSON        PTCLDY    51  31  47 W3        30.27R
AUGUSTA-BUSH   CLEAR     58  35  42 NW15      30.18R
AUGUSTA-DANIEL CLEAR     54  31  41 NW12      30.20R
SWAINSBORO     FAIR      55  32  41 NW13G20   30.21R
VIDALIA        CLEAR     59  41  51 NW8       30.20R
EASTMAN        FAIR      57   4  12 N3        30.25R
HAZLEHURST     FAIR      60  38  43 NW6       30.19R
ALMA           NOT AVBL
WAYCROSS       PTCLDY    63  43  48 N9        30.19R
JESUP          FAIR      61  46  59 N8        30.18R
BAXLEY         FAIR      61  43  51 N7        30.19R
BRUNSWICK      PTCLDY    61  46  59 NW7       30.17R
SAINT SIMONS   PTCLDY    62  44  51 NW6       30.15R

$$

SCZ027-028-034-036>038-045-046-048>050-GAZ119-141-082300-
...LAKE AND SUPPLEMENTAL COASTAL OBSERVATIONS...

STATION/POSITION TIME  TEMP    WIND        PRES    WAVE   SWELL
                       AIR SEA DIR/SP/G            HT/PER HT/PER/DIR
                 (UTC) (F)     (DEG/KT/KT) (MB)    (FT/S) (FT/S/D)
WINYAH BAY       NOT AVBL
LAKE MURRAY      2120   51     330/  6/ 12 1021.3
ACE BASIN NERRS  2045   62     300/  4     1019.0
FORT PULASKI     2148   61 62  320/ 12/ 14 1020.8R
SAPELO ISLAND    2100   65     320/ 14     1020.0

$$

ANZ835-935-AMZ111-154-330-350-352-354-370-450-454-472-082300-
...C-MAN AND BUOY OBSERVATIONS...

STATION/POSITION TIME  TEMP    WIND        PRES    WAVE   SWELL
                       AIR SEA DIR/SP/G            HT/PER HT/PER/DIR
                 (UTC) (F)     (DEG/KT/KT) (MB)    (FT/S) (FT/S/D)
BUOY 41004       2150   62 74  320/ 10/ 14 1018.7R   2/ 4   2/110/ 8
BUOY 41008       2150   63 64  320/ 17/ 21 1020.1R   2/ 3   2/ 70/11
FOLLY BEACH CMAN 2100   64     290/  9/ 12 1019.5R
CAPERS NEARSHORE 2108   62 62  340/ 12/ 14 1018.6R
FRIPP NEARSHORE  2108   62 62  320/ 14/ 17 1019.4R


STATION/POSITION TIME  TEMP    WIND        PRES    WAVE   SWELL
                       AIR SEA DIR/SP/G            HT/PER HT/PER/DIR
                 (UTC) (F)     (DEG/KT/KT) (MB)    (FT/S) (FT/S/D)
5E ST. MARYS GA  2200      66                N/A     2/12
FRYING PAN BUOY  2150   60 74  310/ 14/ 17 1018.5R   3/ 4   2/100/10
BUOY 41025       2150   57 77  310/ 19/ 23 1016.5R   5/10   3/ 70/10
CAPE LOOKOUT NC  2100   55     330/ 12/ 13 1016.8R
BUOY 41002       2150   73 74  260/ 12/ 12 1016.5R   5/ 9   3/ 50/ 9
BUOY 41010       NOT AVBL
ST AUGUSTINE FL  2200   63 68  350/  9/ 10 1021.5R


$$



USA.gov is the U.S. government's official web portal to all federal, state and local government web resources and services.